{"data":{"norad_id":51146,"intl_designator":"2022-005AU","name":"STARLINK-3354","alt_names":[],"object_type":"PAYLOAD","status":"ACTIVE","operator":null,"country":"US","launch_date":"2022-01-19","launch_site_code":"AFETR","launch_vehicle":null,"mission":null,"orbit_class":"UNKNOWN","rcs_meters":null,"size_class":null,"mass_kg":null,"dimensions":null,"purposes":["comms"],"wikipedia_slug":null,"has_3d_model":false,"image_url":null,"decayed_at":null,"tle_current":{"epoch":"2026-05-24T21:21:25.958592Z","epoch_age_seconds":98643,"freshness":"FRESH","line1":"1 51146U 22005AU  26144.88988378  .00001233  00000+0  95535-4 0  9991","line2":"2 51146  53.2136 317.0529 0001787  95.4283 264.6913 15.08839436240239","mean_motion":15.08839436,"eccentricity":0.0001787,"inclination_deg":53.2136,"raan_deg":317.0529,"arg_perigee_deg":95.4283,"mean_anomaly_deg":264.6913,"bstar":9.5535e-5,"rev_number":24023,"period_min":95.437590352059,"perigee_km":538.50888735344,"apogee_km":540.98133842058,"semimajor_km":6917.882112887,"source":"CELESTRAK","updated_at":"2026-05-25T13:38:16.915564Z"}}}